{"data":{"norad_id":65204,"epoch":"2026-09-20T11:03:22.207680Z","epoch_age_seconds":123770,"freshness":"FRESH","line1":"1 65204U 25176G   26263.46067370  .00044238  00000+0  13099-2 0  9994","line2":"2 65204  53.1608 323.5796 0001268 105.7041 254.4102 15.34468686 63000","mean_motion":15.34468686,"eccentricity":0.0001268,"inclination_deg":53.1608,"raan_deg":323.5796,"arg_perigee_deg":105.7041,"mean_anomaly_deg":254.4102,"bstar":0.0013099,"rev_number":6300,"period_min":93.843557261096,"perigee_km":461.63170589805,"apogee_km":463.36649121264,"semimajor_km":6840.6360985553,"source":"CELESTRAK","updated_at":"2026-09-21T09:00:35.534189Z"}}